User: anonymous   Login
Location: Unspecified
(0.0000°N, 0.0000°E)
Time: 02:24:55
(UTC+00:00)
Language:

MUOS 3 - Orbit

View from above orbital plane
View from above orbital plane
View from above satellite
View from above satellite

Ground track
Ground track

The orbit data is extracted from the following two-line orbital elements,

1 40374U 15002A   23081.75894969 -.00000142  00000-0  00000+0 0  9994
2 40374   2.7128  22.8737 0052006 179.8526 235.0395  1.00271393 29969
Epoch (UTC): 22 March 2023 18:12:53
Eccentricity: 0.0052006
inclination: 2.7128°
perigee height: 35567 km
apogee height: 36005 km
right ascension of ascending node: 22.8737°
argument of perigee: 179.8526°
revolutions per day: 1.00271393
mean anomaly at epoch: 235.0395°
orbit number at epoch: 2996

The dashed part of the orbit path shows where the satellite is in the earth's shadow,  

DLR